TimeMST,TemperatureF,Dew PointF,Humidity,Sea Level PressureIn,VisibilityMPH,Wind Direction,Wind SpeedMPH,Gust SpeedMPH,PrecipitationIn,Events,Conditions,WindDirDegrees,DateUTC
12:53 AM,48.9,23.0,36,29.52,10.0,SW,23.0,32.2,N/A,,Clear,230,2013-11-03 06:53:00
1:53 AM,50.0,24.1,36,29.50,10.0,SW,23.0,-,N/A,,Clear,220,2013-11-03 07:53:00
1:53 AM,50.0,24.1,36,29.47,10.0,SW,19.6,27.6,N/A,,Clear,220,2013-11-03 08:53:00
2:53 AM,46.9,24.1,41,29.45,10.0,SSW,17.3,26.5,N/A,,Clear,210,2013-11-03 09:53:00
3:53 AM,46.0,24.1,42,29.50,10.0,West,19.6,28.8,N/A,,Clear,270,2013-11-03 10:53:00
4:00 AM,46.4,24.8,43,29.56,10.0,West,17.3,26.5,N/A,,Clear,270,2013-11-03 11:00:00
4:53 AM,37.9,27.0,65,29.58,10.0,WNW,5.8,-,N/A,,Clear,300,2013-11-03 11:53:00
5:53 AM,35.1,28.0,76,29.60,10.0,West,12.7,-,N/A,,Clear,280,2013-11-03 12:53:00
6:53 AM,33.1,28.0,82,29.63,10.0,West,9.2,-,N/A,,Partly Cloudy,280,2013-11-03 13:53:00
7:53 AM,36.0,28.9,76,29.62,10.0,NW,9.2,-,N/A,,Clear,310,2013-11-03 14:53:00
8:53 AM,41.0,30.9,67,29.61,10.0,NW,11.5,-,N/A,,Overcast,310,2013-11-03 15:53:00
9:53 AM,42.1,30.9,65,29.63,10.0,NNW,13.8,-,N/A,,Overcast,330,2013-11-03 16:53:00
10:53 AM,43.0,30.9,62,29.63,10.0,NNW,17.3,23.0,N/A,,Overcast,330,2013-11-03 17:53:00
11:10 AM,44.6,30.2,57,29.66,10.0,NNW,15.0,25.3,N/A,,Overcast,330,2013-11-03 18:10:00
11:53 AM,39.9,30.9,70,29.66,10.0,NW,21.9,26.5,N/A,,Overcast,310,2013-11-03 18:53:00
12:34 PM,35.6,30.2,81,29.69,10.0,NW,16.1,-,N/A,,Overcast,310,2013-11-03 19:34:00
12:53 PM,37.0,32.0,82,29.68,10.0,NW,16.1,-,N/A,,Overcast,320,2013-11-03 19:53:00
1:03 PM,37.4,32.0,81,29.69,9.0,NW,17.3,-,0.00,Snow,Light Snow,310,2013-11-03 20:03:00
1:11 PM,37.4,33.8,87,29.69,8.0,NW,15.0,-,0.00,,Overcast,320,2013-11-03 20:11:00
1:53 PM,39.0,32.0,76,29.67,10.0,NW,12.7,-,0.00,,Mostly Cloudy,310,2013-11-03 20:53:00
2:29 PM,39.2,28.4,65,29.70,10.0,NNW,10.4,-,N/A,,Overcast,340,2013-11-03 21:29:00
2:53 PM,39.0,28.9,67,29.71,10.0,NW,10.4,-,N/A,,Overcast,310,2013-11-03 21:53:00
3:53 PM,37.9,28.0,68,29.73,10.0,NW,12.7,-,N/A,,Overcast,320,2013-11-03 22:53:00
4:53 PM,37.0,27.0,67,29.76,10.0,NW,16.1,-,N/A,,Overcast,320,2013-11-03 23:53:00
5:53 PM,36.0,24.1,62,29.78,10.0,West,4.6,-,N/A,,Overcast,280,2013-11-04 00:53:00
6:53 PM,35.1,23.0,61,29.81,10.0,WNW,8.1,-,N/A,,Overcast,290,2013-11-04 01:53:00
7:53 PM,35.1,21.9,59,29.81,10.0,West,8.1,-,N/A,,Overcast,270,2013-11-04 02:53:00
8:53 PM,35.1,23.0,61,29.82,10.0,WNW,10.4,-,N/A,,Overcast,290,2013-11-04 03:53:00
9:53 PM,34.0,19.9,56,29.85,10.0,WNW,12.7,-,N/A,,Overcast,300,2013-11-04 04:53:00
10:53 PM,34.0,19.9,56,29.87,10.0,WNW,13.8,-,N/A,,Overcast,300,2013-11-04 05:53:00